Regional Weather Roundup
Issued by NWS

Home | Current Version | Previous Version | Text Only | Print | Product List | Glossary On
Versions: 1 2 3 4 5 6 7 8 9 10 11 12 13 14 15 16 17 18 19 20 21 22 23 24 25 26 27 28 29 30 31 32 33 34 35 36 37 38 39 40 41 42 43 44 45 46 47 48 49 50
000
ASHW40 PHFO 221043
RWRHI

WEATHER ROUNDUP FOR HAWAII
NATIONAL WEATHER SERVICE HONOLULU HI
1200 AM HST MON DEC 22 2014

THIS IS AN AUTOMATED REPORT THAT HAS NOT BEEN QUALITY CONTROLLED.

NOTE..."FAIR" INDICATES FEW OR NO CLOUDS BELOW 12,000 FEET WITH NO
SIGNIFICANT WEATHER AND/OR OBSTRUCTIONS TO VISIBILITY.

* - THESE SITES REPORT LIMITED FIELDS

HIZ001>004-221100-
KAUAI-NIIHAU-

CITY           SKY/WX    TMP DP  RH WIND       PRES   REMARKS
LIHUE APT      MOCLDY    74  65  73 N21G29    30.04F
PORT ALLEN*      N/A     72 N/A N/A NE6         N/A
POIPU*           N/A     70 N/A N/A N6G14       N/A
PRINCEVILLE*     N/A     68 N/A N/A MISG        N/A
KOKOLE POINT*  NOT AVBL
MOLOAA DAIRY*  NOT AVBL
WAIMEA HTS*      N/A     66  63  88 NW3         N/A
PUU OPAE*        N/A     63  59  88 CALM        N/A
PUU LUA*       NOT AVBL
MAKAHA RIDGE*  NOT AVBL
$$

HIZ005>011-221100-
OAHU-

CITY           SKY/WX    TMP DP  RH WIND       PRES   REMARKS
HONOLULU       PTCLDY    72  65  78 VRB3      30.00F
KALAELOA       CLEAR     67  64  90 CALM      30.02F
KANEOHE MCB    CLOUDY    72  70  93 CALM      30.01F
WHEELER FIELD  FAIR      67  64  90 NW8       30.03S
BELLOWS*         N/A    N/A N/A N/A W5          N/A
KAHUKU*          N/A    N/A N/A N/A SW1         N/A
WHEELER*       NOT AVBL
WAIANAE HARBOR NOT AVBL
DILLINGHAM*      N/A     68  66  94 CALM        N/A
KAHUKU TRN*      N/A     70  66  88 S2          N/A
KAWAILOA*        N/A     66  64  94 W1G9        N/A
KII*             N/A     72  66  83 W2          N/A
MAKUA RANGE*     N/A     73  64  73 E2G8        N/A
OAHU FOREST NW   N/A     63 -13   4 CALM        N/A
SCHOFIELD BRK*   N/A     63  63 100 MISG        N/A
SCHOFIELD S*   NOT AVBL
WAIANAE VLY*     N/A     66  61  82 N3          N/A
KUAOKALA*        N/A     70  64  83 CALM        N/A
HONOULIUULI*   NOT AVBL
MOKUOLOE IS*     N/A    N/A N/A N/A MISG        N/A
PALEHUA*         N/A    N/A N/A N/A CALM        N/A
WAIAWA PHB*    NOT AVBL
$$

HIZ012>013-221100-
MOLOKAI-

CITY           SKY/WX    TMP DP  RH WIND       PRES   REMARKS
MOLOKAI AIRPT  CLEAR     65  64  97 CALM      30.02F
KALAUPAPA      NOT AVBL
MAKAPULAPAI*     N/A     72  64  78 SE6         N/A
MOLOKAI 1*       N/A    N/A N/A N/A E2          N/A
PUU ALII*        N/A     56  55  98 CALM        N/A
$$

HIZ016-221100-
KAHOOLAWE-

CITY           SKY/WX    TMP DP  RH WIND       PRES   REMARKS
KAHOOLAWE*       N/A     66 N/A N/A S1          N/A
HAKIOAWA*        N/A     67  65  94 MISG      30.43F
HONOKANAIA*      N/A     73  66  79 NE3       30.02F
KANELOA*         N/A     70  66  88 E2        29.25S
KEALIALALO*    NOT AVBL
LUA MAKIKA*    NOT AVBL
$$

HIZ014>015-221100-
LANAI-

CITY           SKY/WX    TMP DP  RH WIND       PRES   REMARKS
LANAI CITY     FAIR      63  63 100 E6        30.07S
LANAI 1*         N/A     64  64 100 E9          N/A
$$

HIZ017>028-221100-
MAUI-

CITY           SKY/WX    TMP DP  RH WIND       PRES   REMARKS
KAHULUI        CLEAR     66  60  81 S5        30.02S
KAPALUA-W MAUI NOT AVBL
HANA AIRPORT     N/A     64  63  94 CALM      30.03S
HANA*            N/A     66 N/A N/A S3          N/A
HALEAKALA SUMM   N/A     37  25  60 S17         N/A  WCI  28
MAALAEA BAY*   NOT AVBL
HALEAKALA*     NOT AVBL
KAUPO GAP*       N/A     55  41  58 N8          N/A
KULA 1*          N/A     46  37  71 CALM        N/A
$$

HIZ023>026-221100-
BIG ISLAND OF HAWAII COAST AND LOWER SLOPES-

CITY           SKY/WX    TMP DP  RH WIND       PRES   REMARKS
KAILUA KONA    MOCLDY    75  65  70 E3        29.99F
HILO           MOCLDY    69  63  81 SW6       30.01F
HONOKAA*       NOT AVBL
KAWAIHAE MWT*    N/A     73 N/A N/A E5          N/A
KAWAIHAE*        N/A     73 N/A N/A NE3         N/A
SOUTH POINT*     N/A     68 N/A N/A NE12        N/A
UPOLU AIRPORT*   N/A    N/A N/A N/A SE9         N/A
KAMUELA*       SUNNY     55  54  94 SE3       30.11S
HAKALAU*         N/A     43  36  75 SW5         N/A
KALOKO-HONOKO*   N/A     73  63  68 W1        29.98F
PALI 2*          N/A     61  57  88 VRB6G12     N/A
KEALAKOMO*       N/A     79  73  83 NW3         N/A
KAUPULEHU*       N/A     70  59  68 SE3         N/A
KAPAPALA*        N/A     60  57  91 CALM        N/A
LOWER KAHUKU*    N/A     61  57  88 N3G12       N/A
PUHE CS*       NOT AVBL
PUHO CS*         N/A     72  67  86 NE2         N/A
PTA KEAMUKU*     N/A     55  54  94 CALM        N/A
WAIKOLOA*        N/A     68  59  73 SE6         N/A
$$

HIZ027>028-221100-
BIG ISLAND OF HAWAII INTERIOR AND SUMMMITS-

CITY           SKY/WX    TMP DP  RH WIND       PRES   REMARKS
BRADSHAW FIELD CLOUDY    47  43  85 SE2       30.31F
MK VISITOR CEN NOT AVBL
MAUNA KEA*       N/A     32 -17  11 W5          N/A  WCI  27
MAUNA LOA*       N/A     37 -18   8 MISG        N/A
MAUNA LOA 1*   NOT AVBL
PTA KIPUKA*      N/A     52  48  87 S6G12       N/A
PTA RANGE 17*    N/A     52  48  87 NE3G10      N/A
PTA WEST*        N/A     55  54  94 SE3G9       N/A
NENE CABIN*      N/A    N/A N/A N/A N6          N/A
AHUMOA*          N/A     48  45  87 S3G9        N/A
PTA PORTABLE*  NOT AVBL
PUU MALI*      NOT AVBL
$$

HIC003-221100-
NORTHWEST ISLANDS-

CITY           SKY/WX    TMP DP  RH WIND       PRES   REMARKS
MIDWAY ISLAND  MOCLDY    63  48  59 NE10G22   30.42S
MIDWAY NOS*    NOT AVBL
FRENCH FRIGATE NOT AVBL
$$

PHZ110>124-180-221100-
BUOY REPORTS

STATION/POSITION TIME  TEMP    WIND        PRES    WAVE   SWELL
                       AIR SEA DIR/SP/G            HT/PER HT/DIR
                 (UTC) (F)     (DEG/KT/KT) (MB)    (FT/S) (FT/D)
BUOY 51001       NOT AVBL
BUOY 51101       1000   70 77  360/ 17/ 21 1021.3R  14/16  11/280
BUOY 51100       NOT AVBL
BUOY 51003       1000   77 79   30/ 10/ 14 1016.5F   9/17  10
BUOY 51004       0856   77 78   90/ 12/ 16 1015.3F   9/10   8/ 90
BARBERS PT BUOY  NOT AVBL
WAIMEA BAY BUOY  1000      78                N/A     8/17   7/320
KAILUA BAY BUOY  1000      77                N/A     6/10   2/ 60
LANAI BUOY       1000      78                N/A     4/18   3/280
BARBERS PT 2     1000      77                N/A     8/17   7/320
PAUWELA MAUI     1000      77                N/A     8/17   7/320
HILO             1000      78                N/A     8/11   5/110
KANEOHE BAY BUOY 1000      77                N/A     4/10   2/ 30
HANALEI KAUAI    NOT AVBL
KAHULUI HARBOR   1000   68 77  150/  2/  3 1016.0F
HONOLULU HARBOR  1000   72      CALM  /  1 1016.3F
KILO NALU        NOT AVBL
HILO HARBOR      1000   70     190/  6/  8 1015.7F
MOKUOLOE         1000   71 76  230/  2/  3 1016.3F
NAWILIWILI       1000      77                N/A
WHOTS BUOY       NOT AVBL
BUOY 51028       NOT AVBL
$$

......................KEY........................................
  SKY/WX - SKY CONDITIONS/PRESENT WEATHER
  TMP    - TEMPERATURE IN FAHRENHEIT
  DWPT   - DEWPOINT IN FAHRENHEIT
  RH     - RELATIVE HUMIDITY IN PERCENT
  WIND   - DIRECTION AND SPEED /MPH FOR ISLANDS...KTS FOR BUOYS/
  PRES   - MEAN SEA LEVEL PRESSURE IN INCHES OF HG
  VSB    - VISIBILITY IN MILES
  HX     - HEAT INDEX
  WCI    - WIND CHILL INDEX
  VRB    - VARIABLE WIND DIRECTION
  N/A    - NOT AVAILABLE


USA.gov is the U.S. government's official web portal to all federal, state and local government web resources and services.